Torna al catalogo

COSMOS 2251 DEB

AttivoLEO
NORAD 53093·DEBRIS·🇷🇺 Russia

Lanciato Jun 16, 1993 da Plesetsk Cosmodrome

Loading…

Prossimi Passaggi (prossime 24 ore)

TLE

AggiornatoSource: Space-Track

Epoca: Sep 14, 2026, 03:38 UTC

1 53093U 93036BYP 26257.15175226  .00001059  00000-0  32278-3 0  9992
2 53093  74.0350 150.4085 0020840 169.3372 190.8231 14.43081858216970

Traccia COSMOS 2251 DEB in tempo reale con AllMySat

Download on the App Store